Location: Lalanga
(4.5882°N, 32.9072°E)
Time: 18:04:31
(UTC+00:00)

Cosmos 1842 Rocket - Pass Details

Date: 24 January 2020
Orbit: 606 x 633 km, 82.5° (Epoch: 22 February)

Event Time Altitude Azimuth Distance (km) Brightness Sun altitude
Rises 16:46:09 0° 12° (NNE) 2,912 6.7 -12.3°
Reaches altitude 10° 16:48:33 10° 21° (NNE) 2,006 5.8 -12.9°
Maximum altitude 16:52:34 33° 86° (E) 1,063 4.2 -13.8°
Drops below altitude 10° 16:56:34 10° 150° (SSE) 2,006 6.1 -14.8°
Sets 16:58:58 0° 159° (SSE) 2,912 7.0 -15.3°
